Regional Weather Roundup
Issued by NWS

Home | Current Version | Previous Version | Text Only | Print | Product List | Glossary Off
Versions: 1 2 3 4 5 6 7 8 9 10 11 12 13 14 15 16 17 18 19 20 21 22 23 24 25 26 27 28 29 30 31 32 33 34 35 36 37 38 39 40 41 42 43 44 45 46 47 48 49 50

000
ASUS43 KMKX 231521
RWRWI

WISCONSIN REGIONAL WEATHER ROUNDUP
NATIONAL WEATHER SERVICE MILWAUKEE/SULLIVAN WI
1000 AM CDT SAT MAY 23 2015

NOTE: "FAIR" INDICATES FEW OR NO CLOUDS BELOW 12,000 FEET WITH NO
SIGNIFICANT WEATHER AND/OR OBSTRUCTIONS TO VISIBILITY.

WIZ001-002-006>008-014>016-023>028-231600-
NORTHWEST WISCONSIN

CITY           SKY/WX    TMP DP  RH WIND       PRES   REMARKS
SUPERIOR ARPT  SUNNY     72  40  31 SW9       30.21F
ASHLAND        SUNNY     72  40  31 SW9       30.23S
HAYWARD        SUNNY     69  38  32 W7        30.25S
SIREN          SUNNY     69  42  38 CALM      30.24S
CUMBERLAND     SUNNY     64  41  42 S6        30.25F
RICE LAKE      SUNNY     67  41  39 SE5       30.26F
CHETEK         SUNNY     65  46  50 S3        30.26S
LADYSMITH      SUNNY     65  45  47 CALM      30.28F
EAU CLAIRE     MOSUNNY   66  43  43 S8        30.25F
MENOMONIE      MOSUNNY   64  45  49 S5        30.26S
NEW RICHMOND   PTSUNNY   64  44  47 CALM      30.25S
OSCEOLA        MOSUNNY   64  44  47 SW3       30.28S
$$

WIZ003>005-009-010-017-018-231600-
NORTH CENTRAL WISCONSIN

CITY           SKY/WX    TMP DP  RH WIND       PRES   REMARKS
MANITOWISH WTR SUNNY     67  39  35 W7        30.26S
ARBOR VITAE    SUNNY     67  38  34 SW8       30.26F
WOODRUFF       SUNNY     67  38  34 SW8       30.26F
RHINELANDER    SUNNY     67  38  34 SW9       30.28F
EAGLE RIVER    SUNNY     66  32  27 SW9       30.26F
LAND O LAKES   SUNNY     69  32  25 SW9       30.26F
PHILLIPS       SUNNY     66  41  39 SW6       30.26F
TOMAHAWK       SUNNY     66  40  39 CALM      30.28F
MEDFORD        SUNNY     64  44  48 SW5       30.28F
MERRILL        SUNNY     63  45  51 SW3       30.30F
$$

WIZ029-030-035-036-043>047-231600-
CENTRAL WISCONSIN

CITY           SKY/WX    TMP DP  RH WIND       PRES   REMARKS
WAUSAU         MOSUNNY   62  42  47 VRB3      30.28F
MOSINEE        SUNNY     63  43  48 S3        30.30F
MARSHFIELD     SUNNY     66  43  43 SW5       30.28F
STEVENS POINT  SUNNY     65  38  37 S6        30.29F
WAUPACA        SUNNY     69  34  27 SW6       30.30F
WAUTOMA        SUNNY     70  35  27 SW12      30.30F
WISC RAPIDS    SUNNY     67  37  33 SW7       30.30F
CAMP DOUGLAS   MOSUNNY   68  43  40 S7        30.28S
$$

WIZ011>013-019>022-031-037>040-048>050-231600-
NORTHEAST WISCONSIN

CITY           SKY/WX    TMP DP  RH WIND       PRES   REMARKS
ANTIGO         MOSUNNY   62  44  51 SW10      30.29F
SHAWANO        SUNNY     66  37  34 SW6       30.30F
OCONTO         SUNNY     66  37  33 SW8       30.29F
STURGEON BAY   SUNNY     64  36  34 W16       30.32F
GREEN BAY      SUNNY     67  37  33 SW10      30.31F
MANITOWOC      SUNNY     61  42  49 E7        30.33S
APPLETON       MOSUNNY   64  36  34 S14       30.32F
CLINTONVILLE   SUNNY     66  34  30 SW8       30.29F
OSHKOSH        SUNNY     68  38  33 S13       30.30F
$$

WIZ032>034-041-042-053>061-231600-
SOUTHWEST WISCONSIN

CITY           SKY/WX    TMP DP  RH WIND       PRES   REMARKS
LA CROSSE      MOSUNNY   65  45  48 VRB7      30.27F
SPARTA         SUNNY     69  40  34 S7        30.28S
VIROQUA        PTSUNNY   66  42  41 S8        30.29S
BOSCOBEL       SUNNY     69  46  43 VRB3      30.29F
PRAIRIE DU CHI PTSUNNY   65  44  48 CALM      30.28F
PLATTEVILLE    SUNNY     67  43  41 S7        30.30F
$$

WIZ056-057-062-063-064-067-068-231600-
SOUTH CENTRAL WISCONSIN

CITY           SKY/WX    TMP DP  RH WIND       PRES   REMARKS
REEDSBURG      SUNNY     66  42  41 S5        30.29F
BARABOO/DELLS  SUNNY     67  37  32 S9        30.30F
LONE ROCK      SUNNY     68  41  37 CALM      30.30F
MINERAL POINT  MOSUNNY   64  41  42 S6        30.30F
MADISON        PTSUNNY   67  37  33 S14       30.31F
MIDDLETON      MOSUNNY   69  31  24 S6        30.31F
WATERTOWN      SUNNY     68  39  34 S7        30.31F
MONROE         MOSUNNY   66  43  42 S5        30.31S
JANESVILLE     SUNNY     70  36  28 S15       30.31F
$$

WIZ051-052-058>065-066-070>072-231600-
SOUTHEAST WISCONSIN

CITY           SKY/WX    TMP DP  RH WIND       PRES   REMARKS
MILWAUKEE      MOSUNNY   69  34  27 S10       30.33F
WAUKESHA       MOSUNNY   66  32  28 S8        30.34F
MILWAUKEE/TIMM SUNNY     68  27  21 S9        30.34S
RACINE         SUNNY     68  33  27 S12       30.35F
BURLINGTON     SUNNY     68  37  31 S9G18     30.33F
KENOSHA        SUNNY     69  39  33 S10       30.34S
FOND DU LAC    SUNNY     69  34  27 S14       30.31F
SHEBOYGAN      SUNNY     70  38  31 SW9G17    30.32F
WEST BEND      SUNNY     68  32  26 S9        30.33F
JUNEAU         SUNNY     65  37  35 S13       30.33F
$$

LSZ147-162-231600-
LAKE SUPERIOR

STATION/POSITION TIME  TEMP    WIND        PRES    WAVE
                       AIR SEA DIR/SP/G            HT/PER
                 (UTC) (F)     (DEG/KT/KT) (MB)    (FT/S)
W MID LAKE BUOY  1450   45 36  230/ 14/ 14   N/A     1/ 3
DEVILS ISLAND    1500   49     230/ 10/ 13   N/A
PORT WING        1400   50     310/  2/  6   N/A
SAXON HARBOR     1400   68     200/  5/ 11   N/A
$$

LMZ867-665-643>646-231600-
LAKE MICHIGAN

STATION/POSITION TIME  TEMP    WIND        PRES    WAVE
                       AIR SEA DIR/SP/G            HT/PER
                 (UTC) (F)     (DEG/KT/KT) (MB)    (FT/S)
CHAMBERS ISLAND  1400   55     180/  5/ 12   N/A
N MID LAKE BUOY  1450   40 36  200/ 14/ 16   N/A     2/ 3
NORTHPORT PIER   1400   61     220/  6/ 20   N/A
SISTER BAY       1417   61     230/ 13/ 17   N/A
KEWAUNEE LAKESHO 1400   51     170/  5/  8   N/A
SHEBOYGAN LAKESH 1500   49     160/ 16/ 17   N/A
PORT WASHINGTON  1440   52     130/  2/  3   N/A
ATWATER BUOY     1500   49 45  130/ 10/ 10   N/A
MILWAUKEE LAKESH 1500   51     120/  9/ 10   N/A
S MID LAKE BUOY  1450   43 38  170/  4       N/A     0
KENOSHA   LAKESH 1500   53     170/  9/ 10   N/A
$$

TC  - TEMPERATURE IN CELSIUS
VSB - VISIBILITY IN STATUTE MILES
WCI - WIND CHILL INDEX
HX  - HEAT INDEX




USA.gov is the U.S. government's official web portal to all federal, state and local government web resources and services.